TimeMST,TemperatureF,Dew PointF,Humidity,Sea Level PressureIn,VisibilityMPH,Wind Direction,Wind SpeedMPH,Gust SpeedMPH,PrecipitationIn,Events,Conditions,WindDirDegrees,DateUTC
12:15 AM,28.4,19.4,69,30.28,10.0,South,9.2,-,N/A,,Overcast,190,2013-02-15 07:15:00
12:35 AM,28.4,17.6,64,30.28,10.0,Calm,Calm,-,N/A,,Overcast,0,2013-02-15 07:35:00
1:15 AM,28.4,19.4,69,30.27,10.0,South,12.7,17.3,N/A,,Mostly Cloudy,190,2013-02-15 08:15:00
1:35 AM,28.4,17.6,64,30.27,10.0,West,12.7,23.0,N/A,,Mostly Cloudy,270,2013-02-15 08:35:00
1:55 AM,26.6,17.6,69,30.28,10.0,West,5.8,-,N/A,,Scattered Clouds,260,2013-02-15 08:55:00
2:15 AM,28.4,17.6,64,30.29,10.0,NW,12.7,18.4,N/A,,Scattered Clouds,320,2013-02-15 09:15:00
2:35 AM,28.4,15.8,59,30.28,10.0,West,12.7,20.7,N/A,,Partly Cloudy,260,2013-02-15 09:35:00
2:55 AM,28.4,15.8,59,30.28,10.0,West,15.0,21.9,N/A,,Scattered Clouds,280,2013-02-15 09:55:00
3:15 AM,28.4,17.6,64,30.27,10.0,West,16.1,21.9,N/A,,Scattered Clouds,270,2013-02-15 10:15:00
3:35 AM,28.4,17.6,64,30.27,10.0,West,16.1,21.9,N/A,,Mostly Cloudy,280,2013-02-15 10:35:00
3:55 AM,26.6,15.8,64,30.28,10.0,West,13.8,29.9,N/A,,Scattered Clouds,260,2013-02-15 10:55:00
4:15 AM,26.6,15.8,64,30.27,9.0,WNW,20.7,32.2,N/A,,Partly Cloudy,290,2013-02-15 11:15:00
4:35 AM,26.6,15.8,64,30.28,10.0,West,19.6,26.5,N/A,,Partly Cloudy,270,2013-02-15 11:35:00
4:55 AM,26.6,15.8,64,30.28,10.0,West,17.3,25.3,N/A,,Scattered Clouds,270,2013-02-15 11:55:00
5:15 AM,26.6,15.8,64,30.30,10.0,WSW,13.8,17.3,N/A,,Mostly Cloudy,250,2013-02-15 12:15:00
5:35 AM,24.8,17.6,74,30.30,10.0,West,10.4,17.3,N/A,,Mostly Cloudy,270,2013-02-15 12:35:00
5:55 AM,24.8,15.8,69,30.31,10.0,SW,8.1,-,N/A,,Partly Cloudy,220,2013-02-15 12:55:00
6:15 AM,24.8,15.8,69,30.32,10.0,WSW,8.1,18.4,N/A,,Clear,240,2013-02-15 13:15:00
6:35 AM,24.8,15.8,69,30.32,10.0,NW,6.9,19.6,N/A,,Clear,310,2013-02-15 13:35:00
6:51 AM,15.8,12.2,86,30.34,10.0,North,9.2,-,N/A,,Scattered Clouds,360,2013-02-15 13:51:00
7:51 AM,15.8,10.4,79,30.36,10.0,North,6.9,-,N/A,,Scattered Clouds,350,2013-02-15 14:51:00
8:51 AM,17.6,12.2,79,30.37,10.0,ENE,3.5,-,N/A,,Partly Cloudy,70,2013-02-15 15:51:00
9:05 AM,17.6,12.2,79,30.38,10.0,NNE,6.9,-,N/A,,Partly Cloudy,20,2013-02-15 16:05:00
10:51 AM,24.8,15.8,69,30.39,10.0,NNE,4.6,-,N/A,,Partly Cloudy,30,2013-02-15 17:51:00
11:53 AM,28.4,17.6,64,30.39,10.0,ENE,5.8,-,N/A,,Partly Cloudy,70,2013-02-15 18:53:00
12:57 PM,30.2,17.6,60,30.38,10.0,East,5.8,-,N/A,,Scattered Clouds,80,2013-02-15 19:57:00
1:55 PM,33.8,17.6,52,30.35,10.0,SE,12.7,-,N/A,,Clear,140,2013-02-15 20:55:00
2:51 PM,33.8,17.6,52,30.34,10.0,East,5.8,-,N/A,,Clear,100,2013-02-15 21:51:00
3:52 PM,33.8,15.8,48,30.34,10.0,Calm,Calm,-,N/A,,Clear,0,2013-02-15 22:52:00
4:53 PM,33.8,17.6,52,30.34,10.0,South,12.7,-,N/A,,Clear,170,2013-02-15 23:53:00
5:53 PM,28.4,19.4,69,30.34,10.0,SSW,11.5,18.4,N/A,,Clear,200,2013-02-16 00:53:00
6:51 PM,28.4,17.6,64,30.35,10.0,SSW,6.9,-,N/A,,Clear,210,2013-02-16 01:51:00
7:51 PM,26.6,19.4,74,30.36,10.0,Calm,Calm,-,N/A,,Clear,0,2013-02-16 02:51:00
8:52 PM,21.2,15.8,80,30.37,10.0,North,9.2,-,N/A,,Clear,360,2013-02-16 03:52:00